"TOA5","AWS1","CR1000","7964","CR1000.Std.14","CPU:AWS1_114.CR1","64363","TBL110"
"TIMESTAMP","RECORD","Wind_spd_WVc(1)","Wind_spd_WVc(2)","Air_Temp_Avg","Humidity_Avg","SW_upper_Wm2_Avg","Rain_Tot","Press_Avg","Issui_Tot","Depth_cm","SR50A_Raw","Quality","Ground_Temp_Avg(1)","Ground_Temp_Avg(2)","SW_lower_Wm2_Avg","Albedo_Avg","SWC_per(1)","SWC_per(2)","Period(1)","Period(2)"
"TS","RN","","","","","","","","","","","","","","","","","","",""
"","","WVc","WVc","Avg","Avg","Avg","Tot","Avg","Tot","Smp","Smp","Smp","Avg","Avg","Avg","Avg","Smp","Smp","Smp","Smp"
"2018-08-01 00:00:00",351853,0.015,50.42,19.95,100,0,0,862.8572,0,4.539,3.026,285,22.73,21.76,0.4321553,0,34.48,43.58,29.15,31.66
"2018-08-01 00:10:00",351854,0,0,19.97,100,0,0,862.8593,0,4.254,3.029,277,22.74,21.77,0.4321512,0,34.52,43.58,29.16,31.66
"2018-08-01 00:20:00",351855,0,0,19.93,100,0,0,862.8593,0,4.276,3.029,271,22.76,21.77,0.4018238,0,34.48,43.58,29.15,31.66
"2018-08-01 00:30:00",351856,0,0,19.89,100,0,0,862.8572,0,4.358,3.028,280,22.68,21.78,0.227447,0,34.52,43.58,29.16,31.66
"2018-08-01 00:40:00",351857,0.006,292.1,19.9,100,0,0,862.8382,0,4.173,3.03,269,22.65,21.76,0.2956815,0,34.52,43.58,29.16,31.66
"2018-08-01 00:50:00",351858,0,0,19.84,100,0,0,862.8234,0,4.068,3.031,266,22.64,21.76,0.227449,0,34.52,43.58,29.16,31.66
"2018-08-01 01:00:00",351859,0,0,19.81,100,0,0,862.678,0,3.437,3.038,240,22.65,21.76,0.2426131,0,34.52,43.58,29.16,31.66
"2018-08-01 01:10:00",351860,0.02,318.9,19.7,100,0,0,862.6044,0,3.748,3.035,233,22.67,21.74,0.2274501,0,34.52,43.58,29.16,31.66
"2018-08-01 01:20:00",351861,0.169,311.9,19.68,100,0,0,862.6044,0,3.724,3.035,235,22.62,21.74,0.2653585,0,34.52,43.63,29.16,31.67
"2018-08-01 01:30:00",351862,0.127,319.3,19.72,100,0,0,862.6044,0,3.724,3.035,233,22.56,21.72,0.4056195,0,34.52,43.63,29.16,31.67
"2018-08-01 01:40:00",351863,0.003,295,19.8,100,0,0,862.6044,0,3.517,3.037,216,22.57,21.71,0.5003904,0,34.57,43.58,29.17,31.66
"2018-08-01 01:50:00",351864,0.294,12.58,19.61,100,0,0,862.6044,0,4.151,3.032,237,22.59,21.69,0.2274502,0,34.57,43.58,29.17,31.66
"2018-08-01 02:00:00",351865,0.114,333.9,19.5,100,0,0,862.6044,0,3.68,3.037,225,22.59,21.69,0.2274502,0,34.52,43.63,29.16,31.67
"2018-08-01 02:10:00",351866,0.323,305.3,19.31,100,0,0,862.6044,0,4.187,3.033,235,22.5,21.71,0.2274502,0,34.52,43.63,29.16,31.67
"2018-08-01 02:20:00",351867,0.043,315.6,19.36,100,0,0,862.6044,0,3.991,3.034,229,22.47,21.71,0.231241,0,34.57,43.63,29.17,31.67
"2018-08-01 02:30:00",351868,0,0,19.5,100,0.003931627,0,862.6339,0,4.048,3.033,233,22.47,21.7,0.5041813,0.048,34.57,43.63,29.17,31.67
"2018-08-01 02:40:00",351869,0,0,19.55,100,0,0,862.6402,0,4.048,3.033,233,22.47,21.71,0.439737,0,34.57,43.63,29.17,31.67
"2018-08-01 02:50:00",351870,0,0,19.5,100,0,0,862.7224,0,4.025,3.033,234,22.47,21.72,0.2350319,0,34.52,43.63,29.16,31.67
"2018-08-01 03:00:00",351871,0.06,17.68,19.51,100,0,0,862.7518,0,4.048,3.033,235,22.47,21.72,0.2274502,0,34.57,43.63,29.17,31.67
"2018-08-01 03:10:00",351872,0,0,19.54,100,0,0,862.638,0,3.841,3.035,226,22.38,21.72,0.2274502,0,34.57,43.63,29.17,31.67
"2018-08-01 03:20:00",351873,0,0,19.57,100,0,0,862.756,0,3.61,3.037,222,22.38,21.72,0.2274502,0,34.57,43.63,29.17,31.67
"2018-08-01 03:30:00",351874,0,0,19.56,100,0,0,862.8108,0,3.817,3.035,237,22.38,21.72,0.2274502,0,34.57,43.63,29.17,31.67
"2018-08-01 03:40:00",351875,0.005,301.2,19.56,100,0,0,862.6212,0,3.817,3.035,237,22.41,21.72,0.253986,0,34.62,43.63,29.19,31.67
"2018-08-01 03:50:00",351876,0,0,19.64,100,0,0,862.7581,0,3.54,3.037,215,22.42,21.72,0.670978,0,34.62,43.63,29.19,31.67
"2018-08-01 04:00:00",351877,0.069,150.6,19.57,100,0,0,862.7181,0,3.657,3.037,223,22.4,21.72,0.2994761,0,34.62,43.63,29.19,31.67
"2018-08-01 04:10:00",351878,0.275,27.46,19.55,100,0,0,862.8572,0,3.748,3.035,224,22.34,21.72,0.6975139,0,34.62,43.63,29.19,31.67
"2018-08-01 04:20:00",351879,0.51,27.77,19.65,100,0,0,862.855,0,3.484,3.038,214,22.31,21.72,0.8301932,0,34.62,43.63,29.19,31.67
"2018-08-01 04:30:00",351880,0.634,58.32,19.48,100,0,0,862.8572,0,3.68,3.037,235,22.33,21.73,0.5989522,0,34.62,43.63,29.19,31.67
"2018-08-01 04:40:00",351881,0.367,54.29,19.34,100,0,0,862.8572,0,3.577,3.038,234,22.33,21.75,0.5837888,0,34.57,43.63,29.17,31.67
"2018-08-01 04:50:00",351882,0.251,224.6,19.58,100,0,0,862.8572,0,3.358,3.039,225,22.33,21.76,1.034885,0,34.62,43.63,29.19,31.67
"2018-08-01 05:00:00",351883,0.14,235.7,19.53,100,0.2712804,0,862.8572,0,3.394,3.04,232,22.31,21.77,1.13724,1.052,34.62,43.63,29.19,31.67
"2018-08-01 05:10:00",351884,0.154,311.1,19.18,100,5.150414,0,862.973,0,3.684,3.039,460,22.24,21.8,1.467049,0.326,34.62,43.63,29.19,31.67
"2018-08-01 05:20:00",351885,0.083,306.1,19.03,100,12.68341,0,863.0972,0,3.397,3.042,451,22.25,21.81,2.528485,0.2,34.62,43.63,29.19,31.67
"2018-08-01 05:30:00",351886,0,0,19.06,100,29.4872,0,863.1246,0,3.04,3.045,397,22.25,21.81,5.178282,0.177,34.62,43.63,29.19,31.67
"2018-08-01 05:40:00",351887,0.042,187.3,18.99,100,39.27695,0,863.1098,0,3.764,3.038,425,22.25,21.81,6.110828,0.156,34.62,43.68,29.19,31.68
"2018-08-01 05:50:00",351888,0.098,306.9,19.16,100,46.26345,0,863.1309,0,3.797,3.037,371,22.23,21.8,7.448993,0.159,34.62,43.68,29.19,31.68
"2018-08-01 06:00:00",351889,0,0,19.28,100,38.52601,0,863.1604,0,3.417,3.04,322,22.18,21.79,5.201027,0.135,34.62,43.68,29.19,31.68
"2018-08-01 06:10:00",351890,0.091,34.57,19.32,100,46.51115,0,863.3226,0,3.026,3.044,290,22.12,21.78,6.179063,0.133,34.62,43.68,29.19,31.68
"2018-08-01 06:20:00",351891,0,0,19.32,100,64.83646,0,863.3311,0,2.232,3.051,237,22.12,21.74,9.132125,0.139,34.62,43.68,29.19,31.68
"2018-08-01 06:30:00",351892,0.038,66.05,19.52,100,64.93868,0,863.3542,0,2.701,3.046,251,22.13,21.7,8.828857,0.135,34.67,43.68,29.2,31.68
"2018-08-01 06:40:00",351893,0.092,30.69,19.68,100,59.87081,0,863.291,0,3.183,3.04,281,22.12,21.7,7.801541,0.13,34.62,43.68,29.19,31.68
"2018-08-01 06:50:00",351894,0.018,15.52,19.96,100,89.74724,0,863.2172,0,2.628,3.044,249,22.03,21.71,12.63486,0.141,34.62,43.68,29.19,31.68
"2018-08-01 07:00:00",351895,0.109,318.3,20.19,99.8,138.7863,0,863.2194,0,2.833,3.04,238,22.03,21.71,18.71914,0.139,34.67,43.68,29.2,31.68
"2018-08-01 07:10:00",351896,0.346,333.7,20.52,97,123.5223,0,863.2531,0,2.925,3.038,254,22.01,21.7,27.17237,0.222,34.67,43.68,29.2,31.68
"2018-08-01 07:20:00",351897,0.337,7.233,20.58,96.6,190.1453,0,863.2068,0,2.927,3.038,234,22.01,21.66,30.79992,0.164,34.71,43.68,29.22,31.68
"2018-08-01 07:30:00",351898,0.621,347,20.83,91,170.1815,0,863.1098,0,4.172,3.024,233,22.01,21.68,34.36633,0.209,34.67,43.68,29.2,31.68
"2018-08-01 07:40:00",351899,0.273,356.8,21.2,89.7,123.0979,0,863.1098,0,4.173,3.022,212,22.02,21.69,30.06006,0.245,34.67,43.68,29.2,31.68
"2018-08-01 07:50:00",351900,0.237,140.3,21.56,89.4,156.4749,0,863.1098,0,4.09,3.021,226,22.01,21.67,36.95504,0.239,34.71,43.68,29.22,31.68
"2018-08-01 08:00:00",351901,0.207,170.3,21.7,85.4,489.8676,0,863.1098,0,4.256,3.019,225,22.01,21.65,35.63937,0.077,34.67,43.68,29.2,31.68
"2018-08-01 08:10:00",351902,0.477,171.8,22.16,79.98,587.1833,0,863.0888,0,4.198,3.016,252,22.01,21.63,58.56018,0.1,34.71,43.68,29.22,31.68
"2018-08-01 08:20:00",351903,0.246,233.1,22.62,76.4,618.2464,0,862.9498,0,4.6,3.01,286,21.93,21.62,75.04308,0.121,34.67,43.68,29.2,31.68
"2018-08-01 08:30:00",351904,0.529,0.336,22.74,78.23,670.925,0,862.8572,0,4.213,3.016,231,21.9,21.58,90.0599,0.134,34.67,43.68,29.2,31.68
"2018-08-01 08:40:00",351905,0.586,13.21,22.48,79.88,718.5792,0,862.8508,0,4.277,3.015,205,21.88,21.61,99.59811,0.139,34.67,43.68,29.2,31.68
"2018-08-01 08:50:00",351906,0.371,84.9,23.05,77.14,721.0377,0,862.7708,0,4.022,3.014,224,21.87,21.58,96.97141,0.134,34.67,43.68,29.2,31.68
"2018-08-01 09:00:00",351907,0.238,323,23.41,73.57,752.2735,0,862.6107,0,4.051,3.012,252,21.86,21.5,96.27702,0.128,34.67,43.68,29.2,31.68
"2018-08-01 09:10:00",351908,0.364,180.1,23.8,73.52,784.1144,0,862.6044,0,4.216,3.01,236,21.85,21.43,99.71181,0.127,34.71,43.68,29.22,31.68
"2018-08-01 09:20:00",351909,0.689,130.2,23.79,73.58,813.0028,0,862.4338,0,4.516,3.008,264,21.85,21.41,106.805,0.131,34.67,43.68,29.2,31.68
"2018-08-01 09:30:00",351910,0.513,19.36,23.93,76.42,848.8105,0,862.4548,0,3.313,3.016,219,21.83,21.41,113.4176,0.134,34.67,43.68,29.2,31.68
"2018-08-01 09:40:00",351911,0.543,21.53,24.41,74.44,859.4156,0,862.3516,0,1.122,3.037,229,21.84,21.42,116.7763,0.135,34.71,43.68,29.22,31.68
"2018-08-01 09:50:00",351912,0.798,17.95,24.14,73.65,915.1275,0,862.3411,0,4.609,3.004,215,21.83,21.41,128.361,0.14,34.67,43.68,29.2,31.68
"2018-08-01 10:00:00",351913,0.699,15.54,24.32,73.58,879.7142,0,862.3095,0,-35.03,3.381,196,21.85,21.4,122.0177,0.136,34.67,43.68,29.2,31.68
"2018-08-01 10:10:00",351914,0.25,342.3,24.37,74.52,618.8988,0,862.2484,0,2.608,3.021,232,21.84,21.35,84.75376,0.133,34.67,43.68,29.2,31.68
"2018-08-01 10:20:00",351915,0.374,304.6,24.01,76.74,369.1902,0,862.2253,0,3.96,3.012,204,21.85,21.35,49.28339,0.127,34.67,43.68,29.2,31.68
"2018-08-01 10:30:00",351916,0.569,332.3,24.12,76.65,698.7445,0,862.299,0,3.915,3.008,235,21.87,21.39,104.5443,0.143,34.62,43.68,29.19,31.68
"2018-08-01 10:40:00",351917,0.463,303.4,25.03,72.86,883.1505,0,862.101,0,2.791,3.017,195,21.9,21.34,132.6489,0.142,34.62,43.68,29.19,31.68
"2018-08-01 10:50:00",351918,0.507,307.9,25.07,70.87,981.9046,0,862.1157,0,3.385,3.01,236,21.98,21.33,150.4898,0.152,34.67,43.63,29.2,31.67
"2018-08-01 11:00:00",351919,0.55,297.9,25.29,68.7,933.6398,0,862.0883,0,2.701,3.017,221,21.99,21.33,139.0868,0.143,34.62,43.63,29.19,31.67
"2018-08-01 11:10:00",351920,0.404,281.9,25.34,65.26,986.0916,0,862.0209,0,1.007,3.031,220,22.03,21.33,150.4199,0.149,34.62,43.63,29.19,31.67
"2018-08-01 11:20:00",351921,0.421,297.9,25.78,64.32,1081.179,0,861.9641,0,2.788,3.012,215,22.11,21.31,166.9187,0.154,34.57,43.63,29.17,31.67
"2018-08-01 11:30:00",351922,0.748,1.882,25.78,64.14,563.6638,0,861.8672,0,2.513,3.021,271,22.18,21.27,78.69006,0.105,34.57,43.63,29.17,31.67
"2018-08-01 11:40:00",351923,0.414,188.4,24.64,69.95,382.9921,0,861.8483,0,-1.55,3.059,214,22.25,21.33,54.62005,0.118,34.57,43.63,29.17,31.67
"2018-08-01 11:50:00",351924,0.529,44.19,24.58,72.2,199.6375,0,861.8461,0,2.636,3.022,218,22.31,21.33,25.80006,0.127,34.57,43.63,29.17,31.67
"2018-08-01 12:00:00",351925,0.512,252.5,24.97,68.9,828.2899,0,861.8862,0,3.918,3.002,243,22.45,21.34,137.4119,0.158,34.52,43.63,29.16,31.67
"2018-08-01 12:10:00",351926,0.439,278.3,25.49,64.01,345.2281,0,861.8251,0,1.484,3.029,204,22.49,21.32,47.47858,0.119,34.52,43.58,29.16,31.66
"2018-08-01 12:20:00",351927,0.398,323.3,25.2,65.67,754.39,0,861.6312,0,3.27,3.007,215,22.59,21.35,124.6517,0.151,34.52,43.58,29.16,31.66
"2018-08-01 12:30:00",351928,0.413,279,26.9,59.31,1042.486,0,861.5955,0,2.217,3.012,237,22.68,21.3,169.9571,0.161,34.52,43.58,29.16,31.66
"2018-08-01 12:40:00",351929,0.428,13.62,27.2,56.2,1094.225,0,861.547,0,3.388,2.998,278,22.74,21.3,174.5788,0.159,34.52,43.58,29.16,31.66
"2018-08-01 12:50:00",351930,0.645,311.2,27.42,51.51,1053.89,0,861.3407,0,1.35,3.021,259,22.78,21.33,165.6614,0.157,34.43,43.53,29.13,31.64
"2018-08-01 13:00:00",351931,0.608,319.7,27.38,49.55,1000.625,0,861.3407,0,3.053,3,233,22.82,21.28,156.9395,0.157,34.43,43.53,29.13,31.64
"2018-08-01 13:10:00",351932,0.409,269.7,27.77,50.72,985.1926,0,861.3344,0,2.765,3.003,292,22.87,21.25,154.8513,0.157,34.38,43.53,29.12,31.64
"2018-08-01 13:20:00",351933,0.931,283.3,27.46,47.86,973.5137,0,861.2606,0,2.958,3.004,275,22.95,21.24,154.9048,0.159,34.34,43.53,29.11,31.64
"2018-08-01 13:30:00",351934,0.528,270.1,27.34,46.01,977.0814,0,861.1215,0,1.483,3.018,234,23.07,21.25,155.4243,0.159,34.38,43.47,29.12,31.63
"2018-08-01 13:40:00",351935,0.405,294.3,27.68,46.7,942.8614,0,861.0879,0,2.841,3.002,256,23.16,21.3,148.8944,0.158,34.34,43.47,29.11,31.63
"2018-08-01 13:50:00",351936,0.734,293.7,27.26,46.8,913.8727,0,861.0837,0,2.642,3.005,206,23.27,21.3,144.6339,0.158,34.29,43.53,29.09,31.64
"2018-08-01 14:00:00",351937,0.764,346.4,27.41,47.08,906.3448,0,861.0752,0,1.933,3.012,269,23.33,21.32,142.0997,0.157,34.29,43.47,29.09,31.63
"2018-08-01 14:10:00",351938,0.53,360,28.03,47.71,913.5701,0,861.0394,0,0.5,3.023,210,23.44,21.34,138.5413,0.151,34.29,43.47,29.09,31.63
"2018-08-01 14:20:00",351939,0.467,279.1,27.99,48.09,846.9,0,860.8415,0,3.142,3,246,23.5,21.34,119.8296,0.141,34.24,43.42,29.08,31.62
"2018-08-01 14:30:00",351940,0.546,264.2,27.63,48.54,821.1808,0,860.8183,0,1.673,3.014,246,23.59,21.34,109.2023,0.133,34.2,43.42,29.07,31.62
"2018-08-01 14:40:00",351941,0.238,224.8,27.75,48.6,786.8111,0,860.8351,0,2.049,3.01,208,23.68,21.32,89.51098,0.114,34.2,43.42,29.07,31.62
"2018-08-01 14:50:00",351942,0.675,279.9,27.4,47.51,760.943,0,860.8331,0,3.135,3.004,369,23.79,21.31,68.59465,0.09,34.2,43.37,29.07,31.6
"2018-08-01 15:00:00",351943,0.491,221.8,27.07,48.8,737.701,0,860.6667,0,2.904,3.006,236,23.81,21.33,49.83532,0.067,34.15,43.37,29.05,31.6
"2018-08-01 15:10:00",351944,0.305,231.2,27.16,49.34,703.851,0,860.6119,0,0.503,3.028,268,23.92,21.34,26.36544,0.037,34.15,43.37,29.05,31.6
"2018-08-01 15:20:00",351945,0.446,257,26.8,50.27,295.9984,0,860.8036,0,0.575,3.031,248,24.02,21.41,16.63777,0.067,34.1,43.32,29.04,31.59
"2018-08-01 15:30:00",351946,0.631,254.8,26.41,50.51,132.8565,0,860.8351,0,3.503,3.003,209,24.08,21.42,14.09894,0.14,34.1,43.37,29.04,31.6
"2018-08-01 15:40:00",351947,0.51,283.3,26.28,49.66,66.87296,0,860.8415,0,0.575,3.032,221,24.17,21.44,12.35214,0.185,34.06,43.32,29.03,31.59
"2018-08-01 15:50:00",351948,0.264,197.9,25.97,53.32,68.14587,0,860.8689,0,2.104,3.018,244,24.26,21.47,11.27627,0.165,34.06,43.32,29.03,31.59
"2018-08-01 16:00:00",351949,0.34,224.4,25.88,55.27,68.60242,0,861.1279,0,0.523,3.034,219,24.24,21.5,10.92385,0.159,34.06,43.32,29.03,31.59
"2018-08-01 16:10:00",351950,0.391,259.7,25.93,57.29,74.26772,0,861.3365,0,1.645,3.025,223,24.34,21.55,11.31434,0.152,34.01,43.27,29.01,31.58
"2018-08-01 16:20:00",351951,0.385,246.1,25.35,61.27,75.45651,0,861.3407,0,3.129,3.013,258,24.37,21.57,10.3897,0.138,34.01,43.27,29.01,31.58
"2018-08-01 16:30:00",351952,0.389,232,24.92,64.21,81.75192,0,861.3407,0,2.056,3.025,217,24.42,21.57,11.48536,0.14,34.01,43.27,29.01,31.58
"2018-08-01 16:40:00",351953,0.195,178.6,24.48,67.66,75.44353,0,861.4417,0,2.17,3.025,202,24.46,21.58,9.916253,0.131,34.01,43.22,29.01,31.56
"2018-08-01 16:50:00",351954,0.6,214.4,24.38,68.4,73.29812,0,861.5955,0,2.227,3.026,218,24.48,21.58,9.681381,0.132,34.01,43.22,29.01,31.56
"2018-08-01 17:00:00",351955,0.372,279.9,24.31,68.23,74.04501,0,861.7239,0,1.542,3.033,213,24.51,21.61,10.73897,0.145,34.06,43.22,29.03,31.56
"2018-08-01 17:10:00",351956,0.309,199.8,24.17,70.37,77.89323,0,861.8461,0,1.532,3.034,204,24.53,21.67,11.08003,0.142,34.06,43.22,29.03,31.56
"2018-08-01 17:20:00",351957,0.233,194.2,23.95,72.1,75.27222,0,861.8461,0,1.747,3.033,226,24.5,21.74,10.31828,0.137,34.01,43.22,29.01,31.56
"2018-08-01 17:30:00",351958,0.211,186.4,23.72,73.52,68.54298,0,861.8672,0,2.648,3.025,222,24.47,21.73,9.204017,0.134,34.01,43.22,29.01,31.56
"2018-08-01 17:40:00",351959,0.255,304.9,23.71,73.37,62.81136,0,861.8461,0,0.714,3.044,226,24.49,21.73,8.57862,0.137,34.06,43.22,29.03,31.56
"2018-08-01 17:50:00",351960,0.389,178.3,23.27,76.34,56.77654,0,861.884,0,1.317,3.04,220,24.49,21.74,7.354212,0.129,34.06,43.22,29.03,31.56
"2018-08-01 18:00:00",351961,0.424,180.3,23.13,75.47,50.36019,0,862.0925,0,0.934,3.043,212,24.44,21.8,6.857621,0.136,34.06,43.22,29.03,31.56
"2018-08-01 18:10:00",351962,0.211,179.2,23.2,75.12,42.82721,0,862.2105,0,3.226,3.023,241,24.4,21.85,5.716581,0.133,34.1,43.22,29.04,31.56
"2018-08-01 18:20:00",351963,0.178,131.4,23.03,76.38,36.37934,0,862.3516,0,0.693,3.048,210,24.42,21.84,4.98874,0.137,34.06,43.22,29.03,31.56
"2018-08-01 18:30:00",351964,0.027,156.6,22.76,77.06,28.4452,0,862.3516,0,-0.229,3.058,199,24.38,21.82,3.991734,0.14,34.06,43.17,29.03,31.55
"2018-08-01 18:40:00",351965,0,0,22.48,78.19,19.44951,0,862.3748,0,-0.458,3.062,203,24.39,21.88,2.657342,0.136,34.06,43.22,29.03,31.56
"2018-08-01 18:50:00",351966,0,0,22.17,80.1,10.94951,0,862.5517,0,0.353,3.056,217,24.36,21.93,1.470834,0.132,34.1,43.17,29.04,31.55
"2018-08-01 19:00:00",351967,0,0,21.84,82.3,3.919822,0,862.6044,0,0.124,3.06,202,24.28,21.95,0.591369,0.156,34.1,43.22,29.04,31.56
"2018-08-01 19:10:00",351968,0,0,21.45,83.9,0.1179487,0,862.7286,0,1.096,3.052,224,24.29,21.94,0.01895416,0.017,34.1,43.22,29.04,31.56
"2018-08-01 19:20:00",351969,0.036,182.8,21.2,85.5,0,0,862.8572,0,0.51,3.059,202,24.25,21.97,0,0,34.1,43.17,29.04,31.55
"2018-08-01 19:30:00",351970,0.069,185.2,20.97,87.6,0,0,862.9414,0,0.651,3.059,209,24.22,22.01,0,0,34.1,43.22,29.04,31.56
"2018-08-01 19:40:00",351971,0.13,191.8,20.66,89.8,0,0,863.1077,0,0.226,3.064,215,24.13,22,0,0,34.1,43.22,29.04,31.56
"2018-08-01 19:50:00",351972,0.024,186.5,20.57,90.4,0,0,863.1098,0,1.404,3.054,232,24.11,22.03,0.03790836,0,34.1,43.22,29.04,31.56
"2018-08-01 20:00:00",351973,0.032,180.3,20.27,92.8,0,0,863.2363,0,1.763,3.051,241,24.09,22.07,0.02653586,0,34.1,43.22,29.04,31.56
"2018-08-01 20:10:00",351974,0.075,185,20.15,94.2,0,0,863.1877,0,1.799,3.052,213,24.04,22.07,0.1137251,0,34.1,43.22,29.04,31.56
"2018-08-01 20:20:00",351975,0.332,187.7,19.83,96.8,0,0,863.2047,0,1.469,3.057,240,24.02,22.07,0.03411753,0,34.1,43.22,29.04,31.56
"2018-08-01 20:30:00",351976,0.055,191.4,19.78,96,0,0,863.3289,0,1.192,3.059,232,23.97,22.06,0.1667968,0,34.15,43.22,29.05,31.56
"2018-08-01 20:40:00",351977,0.186,179.2,19.64,96.8,0,0,863.3626,0,1.507,3.058,229,23.91,22.04,0.2047052,0,34.15,43.22,29.05,31.56
"2018-08-01 20:50:00",351978,0.254,190.5,19.37,98.9,0,0,863.3711,0,0.646,3.067,223,23.86,22.07,0.2274502,0,34.15,43.22,29.05,31.56
"2018-08-01 21:00:00",351979,0.047,231.9,19.47,99.6,0,0,863.5059,0,0.872,3.063,232,23.8,22.12,0.4890179,0,34.15,43.22,29.05,31.56
"2018-08-01 21:10:00",351980,0.122,143.2,19.29,98.6,0,0,863.5605,0,-0.524,3.079,202,23.79,22.15,0.2388227,0,34.15,43.22,29.05,31.56
"2018-08-01 21:20:00",351981,0.199,185.9,19.23,100,0,0,863.5353,0,-0.652,3.08,206,23.75,22.16,0.2691494,0,34.15,43.22,29.05,31.56
"2018-08-01 21:30:00",351982,0.24,182.6,19.02,100,0,0,863.4953,0,-0.438,3.08,209,23.73,22.16,0.1781693,0,34.15,43.22,29.05,31.56
"2018-08-01 21:40:00",351983,0.065,188.2,19.03,100,0,0,863.609,0,-0.445,3.078,225,23.64,22.16,0.4435278,0,34.15,43.22,29.05,31.56
"2018-08-01 21:50:00",351984,0.01,164,19.09,100,0,0,863.6448,0,-0.796,3.083,232,23.64,22.16,0.462482,0,34.15,43.22,29.05,31.56
"2018-08-01 22:00:00",351985,0.047,187,19.11,100,0,0,863.7312,0,-1.527,3.088,253,23.54,22.15,0.7771214,0,34.15,43.22,29.05,31.56
"2018-08-01 22:10:00",351986,0.139,186.5,19,100,0,0,863.8365,0,-1.607,3.092,205,23.52,22.15,0.4890179,0,34.2,43.22,29.07,31.56
"2018-08-01 22:20:00",351987,0.131,188.1,18.6,100,0,0,863.7986,0,-0.503,3.082,268,23.44,22.15,0.2881036,0,34.2,43.22,29.07,31.56
"2018-08-01 22:30:00",351988,0.059,197.1,18.92,100,0,0,863.6364,0,-0.772,3.083,210,23.45,22.15,0.7695398,0,34.2,43.22,29.07,31.56
"2018-08-01 22:40:00",351989,0.053,171.9,18.7,100,0,0,863.6595,0,5.225,3.025,390,23.39,22.14,0.5307171,0,34.2,43.22,29.07,31.56
"2018-08-01 22:50:00",351990,0.162,187.8,18.67,100,0,0,863.748,0,0.889,3.069,242,23.37,22.15,0.462482,0,34.2,43.22,29.07,31.56
"2018-08-01 23:00:00",351991,0.315,190.4,18.43,100,0,0,863.8323,0,-1.465,3.092,202,23.29,22.14,0.3828745,0,34.2,43.22,29.07,31.56
"2018-08-01 23:10:00",351992,0.124,194.4,18.58,100,0,0,863.7839,0,-0.789,3.085,213,23.22,22.17,0.6558147,0,34.2,43.22,29.07,31.56
"2018-08-01 23:20:00",351993,0.191,196.8,18.49,100,0,0,863.6216,0,-1.075,3.088,243,23.2,22.16,0.4700637,0,34.2,43.22,29.07,31.56
"2018-08-01 23:30:00",351994,0.636,44.04,18.96,100,0,0,863.6195,0,-0.539,3.078,243,23.15,22.19,1.031108,0,34.2,43.22,29.07,31.56
"2018-08-01 23:40:00",351995,0.849,32.72,19.56,100,0,0,863.6743,0,0.33,3.068,299,23.1,22.22,1.334374,0,34.2,43.22,29.07,31.56
"2018-08-01 23:50:00",351996,0.598,41.22,19.71,98,0,0,863.628,0,-0.371,3.075,236,23.12,22.23,1.26993,0,34.2,43.22,29.07,31.56
